BREEZE-KM R/B, 40556

Orbit data source: Space-Track

BREEZE-KM R/B, 40556 is space debris in LEO originally from a launch on Tue, 31 Mar 2015 UTC launched from the Plesetsk Missile And Space Complex (PKMTR). Debris objects in space refer to the collection of defunct objects orbiting the Earth. Examples of debris include non-operational satellites, rocket bodies, and fragments generated from explosions, collisions, or faulty payload assembly.

Loading next visibility...
Identifier
40556, 2015-020E
Orbit
LEO
Country
Flag of CISCIS
Related business
Manufacturer
Khrunichev
Mission
Spacecraft
Bus & Motor
BRIZ, S5.92
Mass
2,370 kg wet, 2,370 kg dry
Launch date (UTC)
2015-03-31 (10 years ago)
Launch vehicle
Unknown
Launch site
Plesetsk Missile And Space Complex (PKMTR)
Object type
Payload
Rocket body
Debris
Shape & HBR
Hex Cyl + 1 Rod, 2.0 m
Radar Cross Section
10.190 m², Large (>1 m²)

Expand to show TLE details & history
Last TLE update: 11 hours ago

TLE from 11 hours ago
0 BREEZE-KM R/B
1 40556U 15020E   25243.48713924  .00000027  00000-0  65626-4 0  9990
2 40556  82.4888  39.7260 0214985   6.4449 353.9338 12.80554912487070
Epoch: 2025-08-31T11:41Z
TLE epoch observation values (Epoch: 2025-08-31T11:41:28.83Z)
Latitude
-0.00002°
Longitude
-115.55051°
Altitude
1,177.024 km
Speed
7.342 km/s
True Right ascension
02h 38m 54s
True Declination
0° 00' 00"
Sunlit
Object was in daylight at epoch
Visualization orbit readout
Latitude
Unknown
Longitude
Unknown
Altitude
Unknown
Speed
Unknown
Apparent Right ascension
Unknown
Apparent Declination
Unknown
Sunlit
N/A
Visualization observer readout
Local Sidereal Time
13:54:15
Azimuth
Unknown
Elevation
Unknown
Doppler factor
Unknown
Orbital elements
Apogee altitude
1,502.39 km
Perigee altitude
1,170.682 km
Semi-major axis
7,714.673 km
Eccentricity
0.0215
Inclination
82.4888°
RAAN
39.726°
Arg. of periapsis
6.4449°
True anomaly
353.66632°
Mean anomaly
353.9338°
Eccentric anomaly
353.80079°
Mean motion
3.20307 °/min
Orbital period
112.39 mins
BSTAR
0.000065626
Loading maneuver chart data...
Computing Atmospheric mass density...
Loading historical data...
Loading historical data...
Loading historical data...
Loading historical data...
Loading historical data...
Loading historical data...
Loading historical data...

Documentation

Showing up to 5 results
|